User: anonymous   Login
Location: Unspecified
(0.0000°N, 0.0000°E)
Time: 00:51:50
(UTC+00:00)
Language:

TBA - TO BE ASSIGNED - Orbit

View from above orbital plane
View from above orbital plane
View from above satellite
View from above satellite

Ground track
Ground track

The orbit is defined by the following mean orbital elements,

1 67932U          26145.63548084 +.00000000 +00000-0 +88734-3 0 00009
2 67932  43.0002 116.5970 0001166 254.0084 106.0639 15.27586251    01
Epoch (UTC): 25 May 2026 15:15:05
Eccentricity: 0.0001166
inclination: 43.0002°
perigee height: 482 km
apogee height: 484 km
right ascension of ascending node: 116.5970°
argument of perigee: 254.0084°
revolutions per day: 15.27586251
mean anomaly at epoch: 106.0639°

The dashed part of the orbit path shows where the satellite is in the earth's shadow,  

DLR